EST,Max TemperatureF,Mean TemperatureF,Min TemperatureF,Max Dew PointF,MeanDew PointF,Min DewpointF,Max Humidity, Mean Humidity, Min Humidity, Max Sea Level PressureIn, Mean Sea Level PressureIn, Min Sea Level PressureIn, Max VisibilityMiles, Mean VisibilityMiles, Min VisibilityMiles, Max Wind SpeedMPH, Mean Wind SpeedMPH, Max Gust SpeedMPH,PrecipitationIn, CloudCover, Events, WindDirDegrees
2012-12-1,66,52,39,50,43,37,100,78,48,30.44,30.38,30.34,10,9,2,8,2,,0.00,0,,236
2012-12-2,46,,46,44,44,44,93,93,93,30.39,30.32,30.26,10,10,9,12,2,,0.00,2,,228
2012-12-3,73,64,55,52,51,50,83,64,46,30.32,30.28,30.23,10,6,0,12,5,,0.00,1,Fog,233
2012-12-4,72,62,53,56,53,50,93,75,49,30.36,30.28,30.22,10,10,10,12,5,,0.00,3,,213
2012-12-5,72,64,53,57,53,45,97,78,55,30.22,30.18,30.13,10,10,10,14,9,,0.00,5,Rain,295
2012-12-6,53,50,46,39,34,31,68,58,52,30.33,30.26,30.20,10,10,10,12,7,,0.00,8,,49
2012-12-7,50,48,46,49,44,34,100,86,58,30.22,30.10,30.02,10,5,0,9,5,,0.05,8,Fog-Rain,31
2012-12-8,68,58,48,54,50,48,100,90,59,30.09,30.04,30.00,10,4,0,9,5,,0.00,5,Fog,243
2012-12-9,70,60,51,61,57,50,100,90,73,30.15,30.07,29.99,10,7,0,9,3,,0.01,5,Fog-Rain,215
2012-12-10,70,62,55,59,57,55,100,90,65,29.99,29.86,29.74,10,6,0,18,6,24,0.00,6,Fog-Rain,223
2012-12-11,61,54,46,58,48,32,100,75,51,30.17,29.94,29.75,10,9,4,12,8,,0.00,3,,315
2012-12-12,46,44,41,39,35,30,89,73,56,30.34,30.26,30.16,10,9,5,18,11,26,0.03,7,Rain,33
2012-12-13,53,45,37,36,32,27,93,69,44,30.43,30.35,30.22,10,9,3,17,12,28,0.09,4,Rain,29
2012-12-14,57,44,32,31,27,24,79,58,30,30.44,30.35,30.28,10,10,9,6,2,,0.00,0,,18
2012-12-15,57,46,35,43,33,25,86,62,28,30.31,30.22,30.11,10,10,10,5,0,,0.00,3,,175
2012-12-16,57,54,51,55,52,43,100,91,71,30.10,30.00,29.91,10,5,1,7,2,,0.05,8,Rain,219
2012-12-17,57,55,53,56,54,53,100,95,90,29.93,29.83,29.69,10,8,2,13,4,21,0.17,8,Rain,238
2012-12-18,61,53,41,55,45,28,100,74,30,29.98,29.78,29.68,10,10,10,17,12,26,0.00,4,,252
2012-12-19,66,52,39,40,35,31,82,59,33,30.14,30.06,29.97,10,10,8,8,6,,0.00,0,,247
2012-12-20,62,50,39,59,47,37,94,82,55,30.13,29.83,29.54,10,9,2,32,6,43,0.17,5,Rain,216
2012-12-21,46,42,37,33,25,20,70,52,36,29.94,29.79,29.67,10,10,10,23,17,33,0.00,2,,263
2012-12-22,54,42,30,21,18,15,59,42,22,30.17,30.10,29.95,10,10,10,12,6,,0.00,0,,253
2012-12-23,57,42,27,33,22,15,75,48,22,30.21,30.14,30.07,10,10,10,12,4,16,0.00,1,Rain,222
2012-12-24,51,48,45,49,41,32,100,81,52,30.07,29.98,29.90,10,7,0,10,6,,0.12,7,Fog-Rain,214
2012-12-25,57,52,48,49,47,44,100,88,62,30.12,30.03,29.93,10,7,0,7,4,,0.01,5,Fog-Rain,23
2012-12-26,55,48,39,52,45,32,100,88,66,29.99,29.65,29.45,10,7,2,21,9,33,0.97,7,Rain,72
2012-12-27,51,42,33,32,30,28,85,66,43,30.13,29.97,29.77,10,10,10,13,7,,0.00,0,,281
2012-12-28,44,37,30,32,28,25,85,72,55,30.22,30.13,30.02,10,10,10,7,3,,0.00,2,,52
2012-12-29,51,44,37,43,36,25,100,84,52,30.08,29.84,29.73,10,6,1,15,5,23,0.25,7,Rain,307
2012-12-30,46,37,28,24,21,18,75,55,33,30.45,30.34,30.09,10,10,10,9,4,,0.00,0,,268
2012-12-31,53,40,28,30,26,22,85,55,30,30.42,30.32,30.16,10,10,10,14,6,24,0.00,2,,228